Flag for Norway Weather past 2 weeks in Namsos, Norway

Now
40 °F

Quite cool.


Feels Like: 37 °F
Forecast: 37 / 54 °F
Wind: 5 mph from South

Location: Buholmrasa Fyr


UV Index: 0 (Low)

Visibility: N/A


Pressure: 30.29 "Hg

Humidity: 90%

Dew point: 38 °F

Location of NamsosLocation

Historic Weather in Namsos

°F

Namsos temperature yesterday

Maximum temperature yesterday: 45 °F (at 1:00 PM)
Minimum temperature yesterday: 40 °F (at 9:00 PM)
Average temperature yesterday: 43 °F

Past Weeks' High & Low Weather Summary

 TemperatureHumidityPressure
High50 °F (Apr 8, 4:00 PM)94% (Apr 14, 1:00 AM)30.29 "Hg (Apr 14, 1:00 AM)
Low37 °F (Apr 18, 8:00 AM)52% (Apr 8, 4:00 PM)28.91 "Hg (Apr 13, 6:00 AM)
Average43 °F77%29.70 "Hg
* Reported Apr 5 1:00 AM — Apr 20 1:00 AM, Namsos, Weather by CustomWeather, © 2014

Note: Actual official high and low records may vary slightly from our data, if they occured in-between our weather recording intervals... More about our weather records

Advertising

Historic Weather Conditions — Data for Previous 24 hours

 ConditionsComfort  
Time TempWeatherWind HumidityBarometerVisibility
1:00 AM
Apr 20
40 °FQuite cool.5 mph90%30.29 "HgN/A
12:00 AM40 °FQuite cool.7 mph89%30.28 "HgN/A
11:00 PM
Apr 19
41 °FQuite cool.8 mph87%30.27 "HgN/A
10:00 PM40 °FQuite cool.10 mph85%30.27 "HgN/A
9:00 PM40 °FQuite cool.14 mph80%30.25 "HgN/A
8:00 PM41 °FQuite cool.14 mph80%30.23 "HgN/A
7:00 PM42 °FQuite cool.15 mph77%30.21 "HgN/A
6:00 PM43 °FQuite cool.12 mph81%30.22 "HgN/A
5:00 PM43 °FQuite cool.14 mph76%30.19 "HgN/A
4:00 PM44 °FQuite cool.15 mph72%30.16 "HgN/A
3:00 PM44 °FQuite cool.13 mph72%30.15 "HgN/A
2:00 PM45 °FQuite cool.13 mph74%30.13 "HgN/A
1:00 PM45 °FCool.16 mph70%30.11 "HgN/A
12:00 PM42 °FQuite cool.15 mph93%30.11 "HgN/A
11:00 AM42 °FQuite cool.16 mph94%30.07 "HgN/A
10:00 AM42 °FQuite cool.16 mph94%30.06 "HgN/A
9:00 AM42 °FQuite cool.16 mph92%30.04 "HgN/A
8:00 AM42 °FQuite cool.17 mph89%30.01 "HgN/A
7:00 AM42 °FQuite cool.16 mph88%30.00 "HgN/A
6:00 AM42 °FQuite cool.15 mph84%30.00 "HgN/A
5:00 AM43 °FQuite cool.15 mph79%30.01 "HgN/A
4:00 AM44 °FQuite cool.15 mph72%30.00 "HgN/A
3:00 AM44 °FQuite cool.13 mph76%30.00 "HgN/A
2:00 AM44 °FQuite cool.10 mph78%30.00 "HgN/A
Weather by CustomWeather, © 2014

See weather overview